Theta_e
307 307 308 309 309 309 309 310 310 310 310 309 310 310 309 309 308 309 309 309 311 313 314 314 316 319 323 326 325 317 314 313
305 306 308 309 309 309 309 309 310 309 309 308 308 308 309 307 307 308 308 309 310 313 313 314 317 317 320 320 317 311 310 310
301 303 305 307 308 308 308 309 309 308 306 307 307 308 308 307 305 306 307 309 311 311 312 315 319 319 317 316 312 309 309 310
301 303 303 304 305 306 306 307 307 307 305 305 307 306 305 305 304 304 305 306 309 309 313 315 314 313 305 307 309 307 307 307
302 302 302 303 303 305 305 304 304 303 302 303 303 304 303 303 303 303 304 307 307 310 312 310 309 308 302 303 305 307 306 306
299 299 300 302 302 302 302 302 302 301 301 300 301 301 300 302 302 303 304 306 307 309 308 307 305 303 301 301 303 306 306 305
299 299 299 299 299 299 298 298 297 296 295 297 298 300 300 301 301 301 305 305 306 305 305 303 301 301 300 300 302 303 303 302
296 296 297 294 294 295 294 294 294 294 295 295 298 298 298 298 301 305 305 305 302 303 301 301 301 300 298 299 301 301 298 298
294 294 293 293 294 294 292 293 293 295 296 296 297 299 299 300 301 303 302 301 300 298 298 298 298 298 297 296 296 298 297 297
291 290 290 292 293 292 291 291 294 295 295 295 296 297 298 299 300 301 299 298 296 296 295 295 296 297 296 295 295 296 298 298
290 289 289 291 292 292 292 292 294 295 294 295 296 297 298 300 299 298 296 297 296 294 293 293 294 296 295 295 294 294 295 294
289 289 288 288 294 295 294 294 295 295 294 295 296 296 297 299 298 298 296 295 294 294 293 293 294 294 294 295 295 296 296 297
289 287 287 292 295 295 295 296 296 295 295 295 295 294 293 292 293 295 295 295 295 294 294 294 293 292 293 293 294 295 297 296
287 290 292 293 294 295 297 297 296 294 293 293 293 293 293 293 292 291 292 292 292 291 292 293 292 291 291 291 291 291 291 292
289 291 292 293 293 293 295 295 295 294 293 292 292 292 291 291 292 291 289 291 291 291 290 290 290 290 290 290 290 290 290 293
291 292 292 293 293 293 295 295 295 294 293 293 292 292 292 293 293 294 294 293 291 291 290 291 290 290 290 290 291 292 294 293
291 292 292 292 292 292 294 295 294 293 293 293 293 293 294 295 295 294 293 292 292 293 293 291 291 289 290 290 291 294 293 292
289 289 291 291 292 293 294 294 293 293 293 292 293 295 294 294 294 293 293 293 294 294 293 292 294 294 293 293 294 293 293 293
291 291 292 293 293 294 294 295 295 294 295 295 293 295 294 294 293 292 293 294 292 290 290 290 286 294 292 292 292 292 292 292
291 291 292 293 294 295 295 296 296 296 296 295 295 293 293 293 293 295 294 292 291 290 290 290 286 293 292 292 292 291 292 292
Wind_Speed
14 10 11 12 11 9 9 9 9 9 11 12 12 12 11 11 13 14 14 14 14 14 14 14 14 14 13 11 7 4 3 2
20 18 16 15 12 11 10 11 11 12 13 14 13 13 11 10 12 14 14 14 14 14 14 15 14 12 10 6 3 3 4 5
15 19 16 17 14 13 13 14 13 14 16 15 14 13 11 11 14 14 15 13 12 14 15 15 13 7 5 4 4 5 6 8
18 13 14 12 15 17 17 16 15 16 17 16 14 12 12 13 14 12 14 13 13 14 13 10 5 4 1 6 7 7 8 10
18 14 16 14 13 17 18 18 16 16 13 11 10 14 17 18 14 13 12 12 12 13 7 3 4 3 6 8 11 8 8 9
14 13 15 18 19 17 14 13 15 15 15 16 16 17 15 12 11 11 10 10 10 8 0 4 5 6 9 9 12 10 8 10
17 16 16 16 20 20 20 19 15 14 15 14 11 10 12 10 6 7 10 7 6 2 4 7 7 8 9 9 9 11 10 11
17 18 21 16 18 16 14 15 13 12 12 12 12 9 8 8 5 5 4 3 4 6 9 9 11 9 11 11 9 7 12 11
19 19 17 16 15 14 15 14 13 11 10 10 9 9 8 5 6 3 1 5 8 10 11 9 11 10 12 14 10 10 8 10
17 15 15 15 15 14 15 14 10 9 8 7 7 6 2 3 1 1 5 8 10 10 11 10 10 12 17 19 18 13 11 11
14 14 15 14 13 13 13 10 8 7 6 5 4 3 3 1 0 5 7 7 8 9 9 9 10 9 11 17 15 16 17 11
13 13 13 14 9 6 6 6 5 5 4 5 5 3 3 5 6 6 7 7 8 8 9 9 9 9 9 8 8 10 13 10
12 11 10 11 9 8 8 7 5 4 4 6 8 9 11 12 11 8 8 8 8 9 8 8 9 9 6 10 9 7 8 9
11 11 10 11 11 11 8 9 10 11 11 9 9 9 10 10 13 14 24 23 21 19 17 13 11 15 20 18 16 16 16 13
12 11 10 10 12 13 11 11 12 13 12 11 10 11 10 11 12 14 15 16 24 24 23 21 20 19 20 19 18 18 12 10
11 10 11 11 13 13 10 11 13 15 14 18 10 9 10 11 13 13 13 13 13 11 17 16 21 18 15 13 11 10 11 11
9 10 12 12 13 12 10 10 13 13 11 10 11 10 10 13 12 13 12 12 12 12 12 14 16 18 16 14 12 11 11 10
9 10 11 11 12 11 10 11 14 13 13 18 14 12 11 12 11 11 11 11 13 12 10 10 10 10 11 12 11 11 11 10
10 10 10 11 12 11 10 10 13 10 10 11 14 12 11 10 10 11 10 12 11 9 10 9 9 11 11 11 10 10 10 10
9 11 11 11 10 10 10 10 11 11 11 11 11 11 11 11 10 13 13 11 12 12 11 11 7 11 11 11 10 10 10 9
Wind_Direction
304 279 271 281 288 281 278 281 299 309 311 306 294 287 295 295 305 306 304 300 296 294 295 291 287 286 282 278 289 307 325 2
311 297 289 299 287 289 296 296 294 307 305 299 286 285 276 293 302 298 301 296 296 294 298 292 289 286 281 281 263 109 84 72
297 302 300 305 301 304 302 303 292 300 300 294 283 277 263 287 296 293 297 293 292 298 296 294 289 285 295 259 138 119 111 95
290 285 295 292 300 301 303 295 290 297 293 286 282 266 268 290 292 282 285 283 295 300 299 298 318 321 248 157 128 105 94 91
304 304 300 297 292 296 294 293 295 282 272 270 261 268 277 282 272 269 267 281 300 294 294 323 10 32 76 96 104 98 101 109
305 300 297 296 299 296 295 287 279 274 275 280 280 281 276 274 254 255 260 285 293 286 334 68 73 66 86 98 101 96 88 80
304 305 300 297 295 292 287 286 283 279 274 269 269 289 268 276 251 261 270 281 272 119 89 85 86 76 76 81 98 100 97 91
307 300 299 292 291 287 278 272 267 258 257 263 269 256 265 271 274 292 294 262 120 95 80 79 79 73 68 71 92 108 104 103
306 298 294 289 286 278 268 265 256 253 255 257 258 273 245 248 277 276 235 113 98 88 83 76 72 70 67 62 63 102 97 98
300 297 291 288 283 278 270 259 254 246 245 244 249 251 256 252 26 64 116 106 98 94 89 84 78 78 76 65 58 59 82 94
301 299 297 297 289 278 272 237 221 212 217 224 220 217 229 107 139 111 98 100 102 98 97 96 94 88 88 86 82 83 84 86
311 314 315 311 320 6 38 116 153 154 178 189 175 155 128 99 86 88 96 99 101 105 104 99 98 93 93 97 91 84 74 80
325 323 321 347 7 47 57 74 104 122 128 109 95 90 92 82 67 71 80 62 77 100 100 103 105 93 73 78 85 85 87 80
335 339 5 15 28 45 61 67 82 90 85 82 86 89 86 89 92 82 63 73 74 76 74 85 80 90 80 74 72 73 68 61
354 4 11 29 42 46 50 67 80 82 87 87 85 86 91 97 97 98 98 73 72 73 77 76 78 89 83 81 74 67 68 88
359 13 23 36 50 49 51 71 79 82 83 84 87 88 94 98 102 104 102 101 97 84 54 75 72 73 71 78 91 101 79 69
10 29 37 43 50 47 48 63 76 82 86 87 89 91 95 101 96 93 95 96 96 95 90 75 78 78 73 67 66 79 81 77
26 33 34 48 54 51 60 74 83 85 84 92 94 97 97 97 94 95 94 99 101 95 95 101 109 96 80 76 74 77 77 74
37 42 44 49 64 68 70 74 86 90 90 86 92 92 91 88 87 92 96 96 94 90 79 68 52 88 85 78 73 69 70 70
47 51 46 50 64 77 71 75 87 93 94 94 91 92 93 91 96 97 98 100 96 95 95 83 76 86 84 81 76 71 69 66